This demonstration page uses our WeatherBlox Daily Observations layout. Learn more.

Left ArrowRight Arrow

Hourly Observations for November 30, 2021

Temp ( °F °C ) Dew Point ( °F °C ) Humidity (%) Winds ( mph kmh ) Pressure ( in mb ) Visibility ( mi km ) Precip ( " mm )
12:53 am 00:53 Clear 40 4.4 33 0.6 77 77 SSW 17 28 30.11 1020 10 16 0.00 0.00
1:53 am 01:53 Clear 41 5 33 0.6 73 73 SSW 20 31 30.05 1018 10 16 0.00 0.00
2:53 am 02:53 Clear 39 3.9 32 0 76 76 SW 13 20 30.03 1017 10 16 0.00 0.00
3:53 am 03:53 Clear 41 5 32 0 70 70 SW 17 28 29.98 1015 10 16 0.00 0.00
4:53 am 04:53 Mostly Clear 43 6.1 31 -0.6 63 63 SW 21 33 29.94 1014 10 16 0.00 0.00
5:53 am 05:53 Clear 44 6.7 32 0 63 63 SW 21 33 29.91 1013 10 16 0.00 0.00
6:53 am 06:53 Partly Cloudy 44 6.7 32 0 63 63 WSW 18 30 29.92 1013 10 16 0.00 0.00
7:53 am 07:53 Sunny 47 8.3 29 -1.7 50 50 WSW 26 43 29.91 1013 10 16 0.00 0.00
10:53 am 10:53 Mostly Cloudy 49 9.4 28 -2.2 44 44 SW 21 33 29.89 1012 10 16 0.00 0.00
11:53 am 11:53 Cloudy 51 10.6 28 -2.2 41 41 SW 22 35 29.86 1011 10 16 0.00 0.00
12:53 pm 12:53 Mostly Cloudy 54 12.2 28 -2.2 37 37 WSW 20 31 29.86 1011 10 16 0.00 0.00
1:53 pm 13:53 Sunny 56 13.3 30 -1.1 37 37 W 33 54 29.84 1011 10 16 0.00 0.00
2:53 pm 14:53 Sunny 55 12.8 30 -1.1 38 38 W 30 48 29.85 1011 10 16 0.00 0.00
3:53 pm 15:53 Sunny 52 11.1 31 -0.6 45 45 W 18 30 29.85 1011 10 16 0.00 0.00
4:53 pm 16:53 Clear 49 9.4 31 -0.6 50 50 WSW 21 33 29.86 1011 10 16 0.00 0.00
5:53 pm 17:53 Clear 46 7.8 31 -0.6 56 56 SW 15 24 29.85 1011 10 16 0.00 0.00
6:53 pm 18:53 Clear 44 6.7 31 -0.6 60 60 SW 17 28 29.83 1010 10 16 0.00 0.00
7:53 pm 19:53 Clear 47 8.3 33 0.6 59 59 SW 24 39 29.78 1008 10 16 0.00 0.00
8:53 pm 20:53 Clear 50 10 34 1.1 54 54 SW 25 41 29.76 1008 10 16 0.00 0.00
9:53 pm 21:53 Clear 50 10 34 1.1 54 54 SW 26 43 29.73 1007 10 16 0.00 0.00
10:53 pm 22:53 Clear 52 11.1 35 1.7 53 53 SW 28 44 29.72 1006 10 16 0.00 0.00
11:53 pm 23:53 Clear 52 11.1 37 2.8 57 57 SW 24 39 29.72 1007 10 16 0.00 0.00

Powered by AerisWeather